Location: Austin
(30.3000°N, 97.7500°W)
Time: 22:14:33
(UTC-05:00)

ATLAS 3B R/B - Pass Details

Date: 05 September 2024
Orbit: 940 x 1254 km, 63.8° (Epoch: 14 September)

Event Time Altitude Azimuth Distance (km) Brightness Sun altitude
Rises 21:53:43 0° 328° (NNW) 4,204 6.7 -26.8°
Reaches altitude 10° 21:56:34 10° 326° (NW) 3,229 5.9 -27.3°
Maximum altitude 22:04:19 68° 246° (WSW) 1,308 3.1 -28.8°
Enters shadow 22:06:43 45° 182° (S) 1,585 3.3 -29.3°
